Time,TemperatureF,DewpointF,PressureIn,WindDirection,WindDirectionDegrees,WindSpeedMPH,WindSpeedGustMPH,Humidity,HourlyPrecipIn,Conditions,Clouds,dailyrainin,SoftwareType,DateUTC
2013-08-04 00:03:00,72.4,67.6,30.03,North,349,13.0,14.0,85,0.00,,,0.00,VWS V14.01,2013-08-04 10:03:00,
2013-08-04 00:08:00,72.4,67.6,30.02,NNE,31,10.0,10.0,85,0.00,,,0.00,VWS V14.01,2013-08-04 10:08:00,
2013-08-04 00:13:00,72.4,68.0,30.02,ENE,66,9.0,9.0,86,0.00,,,0.00,VWS V14.01,2013-08-04 10:13:00,
2013-08-04 00:18:00,72.3,68.2,30.02,NNE,16,12.0,15.0,87,0.00,,,0.00,VWS V14.01,2013-08-04 10:18:00,
2013-08-04 00:23:00,72.2,68.1,30.02,NE,52,8.0,8.0,87,0.00,,,0.00,VWS V14.01,2013-08-04 10:23:00,
2013-08-04 00:28:00,72.0,67.9,30.02,NNE,28,3.0,5.0,87,0.00,,,0.00,VWS V14.01,2013-08-04 10:28:00,
2013-08-04 00:33:00,72.1,68.0,30.01,North,6,15.0,17.0,87,0.00,,,0.00,VWS V14.01,2013-08-04 10:33:00,
2013-08-04 00:38:00,72.1,68.0,30.02,NE,42,11.0,11.0,87,0.00,,,0.00,VWS V14.01,2013-08-04 10:38:00,
2013-08-04 00:43:00,72.0,67.9,30.01,North,355,6.0,8.0,87,0.00,,,0.00,VWS V14.01,2013-08-04 10:43:00,
2013-08-04 00:48:00,71.9,67.8,30.01,NNE,18,9.0,9.0,87,0.00,,,0.00,VWS V14.01,2013-08-04 10:48:00,
2013-08-04 00:53:00,71.9,67.8,30.01,NNE,30,5.0,6.0,87,0.00,,,0.00,VWS V14.01,2013-08-04 10:53:00,
2013-08-04 00:58:00,72.0,67.9,30.01,NNE,29,5.0,9.0,87,0.00,,,0.00,VWS V14.01,2013-08-04 10:58:00,
2013-08-04 01:03:00,72.0,67.6,30.00,North,356,10.0,10.0,86,0.00,,,0.00,VWS V14.01,2013-08-04 11:03:00,
2013-08-04 01:08:00,72.0,67.6,30.01,North,355,11.0,15.0,86,0.00,,,0.00,VWS V14.01,2013-08-04 11:08:00,
2013-08-04 01:13:00,72.1,68.0,30.01,NNE,19,7.0,7.0,87,0.00,,,0.00,VWS V14.01,2013-08-04 11:13:00,
2013-08-04 01:18:00,72.0,67.9,30.00,NE,48,11.0,11.0,87,0.00,,,0.00,VWS V14.01,2013-08-04 11:18:00,
2013-08-04 01:24:00,71.8,67.7,30.00,NE,52,6.0,8.0,87,0.00,,,0.00,VWS V14.01,2013-08-04 11:24:00,
2013-08-04 01:29:00,71.4,67.3,30.00,NE,41,11.0,11.0,87,0.00,,,0.00,VWS V14.01,2013-08-04 11:29:00,
2013-08-04 01:34:00,71.2,66.8,30.00,North,359,5.0,6.0,86,0.00,,,0.00,VWS V14.01,2013-08-04 11:34:00,
2013-08-04 01:39:00,71.4,66.7,30.00,North,353,15.0,15.0,85,0.00,,,0.00,VWS V14.01,2013-08-04 11:39:00,
2013-08-04 01:44:00,71.7,66.3,30.00,NE,40,11.0,14.0,83,0.00,,,0.00,VWS V14.01,2013-08-04 11:44:00,
2013-08-04 01:49:00,72.2,66.1,30.00,NNE,19,1.0,4.0,81,0.00,,,0.00,VWS V14.01,2013-08-04 11:49:00,
2013-08-04 01:54:00,72.4,65.5,30.00,NNE,27,13.0,15.0,79,0.00,,,0.00,VWS V14.01,2013-08-04 11:54:00,
2013-08-04 01:59:00,72.5,66.0,30.00,NNE,29,2.0,4.0,80,0.00,,,0.00,VWS V14.01,2013-08-04 11:59:00,
2013-08-04 02:04:00,72.5,67.1,29.99,North,355,10.0,11.0,83,0.00,,,0.00,VWS V14.01,2013-08-04 12:04:00,
2013-08-04 02:09:00,72.3,67.5,29.99,NNE,21,9.0,9.0,85,0.00,,,0.00,VWS V14.01,2013-08-04 12:09:00,
2013-08-04 02:14:00,72.3,67.5,29.99,North,1,8.0,10.0,85,0.00,,,0.00,VWS V14.01,2013-08-04 12:14:00,
2013-08-04 02:19:00,72.3,67.9,29.99,NE,53,4.0,4.0,86,0.00,,,0.00,VWS V14.01,2013-08-04 12:19:00,
2013-08-04 02:25:00,72.2,67.8,29.99,NNE,19,7.0,10.0,86,0.00,,,0.00,VWS V14.01,2013-08-04 12:25:00,
2013-08-04 02:30:00,72.1,67.7,29.99,NNE,26,5.0,6.0,86,0.00,,,0.00,VWS V14.01,2013-08-04 12:30:00,
2013-08-04 02:34:00,72.0,67.9,29.99,NE,35,11.0,11.0,87,0.00,,,0.00,VWS V14.01,2013-08-04 12:34:00,
2013-08-04 02:40:00,71.9,67.8,29.99,NE,47,6.0,7.0,87,0.00,,,0.00,VWS V14.01,2013-08-04 12:40:00,
2013-08-04 02:44:00,71.7,67.6,29.98,North,352,6.0,7.0,87,0.00,,,0.00,VWS V14.01,2013-08-04 12:44:00,
2013-08-04 02:50:00,71.6,67.2,29.98,NE,39,8.0,10.0,86,0.00,,,0.00,VWS V14.01,2013-08-04 12:50:00,
2013-08-04 02:55:00,71.6,66.9,29.98,NNW,343,6.0,6.0,85,0.00,,,0.00,VWS V14.01,2013-08-04 12:55:00,
2013-08-04 03:00:00,71.7,66.9,29.98,NNE,17,7.0,7.0,85,0.00,,,0.00,VWS V14.01,2013-08-04 13:00:00,
2013-08-04 03:05:00,71.7,66.6,29.98,North,353,3.0,3.0,84,0.00,,,0.00,VWS V14.01,2013-08-04 13:05:00,
2013-08-04 03:10:00,71.9,66.5,29.98,NNE,30,4.0,7.0,83,0.00,,,0.00,VWS V14.01,2013-08-04 13:10:00,
2013-08-04 03:15:00,72.1,66.7,29.97,NE,51,7.0,7.0,83,0.00,,,0.00,VWS V14.01,2013-08-04 13:15:00,
2013-08-04 03:20:00,72.1,66.7,29.97,NE,49,10.0,11.0,83,0.00,,,0.00,VWS V14.01,2013-08-04 13:20:00,
2013-08-04 03:25:00,72.3,66.5,29.97,NE,34,13.0,13.0,82,0.00,,,0.00,VWS V14.01,2013-08-04 13:25:00,
2013-08-04 03:30:00,72.3,66.8,29.97,NNE,22,6.0,7.0,83,0.00,,,0.00,VWS V14.01,2013-08-04 13:30:00,
2013-08-04 03:35:00,72.1,67.3,29.97,ENE,58,6.0,6.0,85,0.00,,,0.00,VWS V14.01,2013-08-04 13:35:00,
2013-08-04 03:40:00,72.0,66.9,29.97,North,350,6.0,6.0,84,0.00,,,0.00,VWS V14.01,2013-08-04 13:40:00,
2013-08-04 03:45:00,72.1,66.7,29.97,NNE,14,8.0,8.0,83,0.00,,,0.00,VWS V14.01,2013-08-04 13:45:00,
2013-08-04 03:50:00,72.2,66.8,29.97,NE,35,6.0,6.0,83,0.00,,,0.00,VWS V14.01,2013-08-04 13:50:00,
2013-08-04 03:55:00,72.4,66.6,29.97,NE,38,5.0,7.0,82,0.00,,,0.00,VWS V14.01,2013-08-04 13:55:00,
2013-08-04 04:01:00,72.4,66.9,29.97,North,358,15.0,15.0,83,0.00,,,0.00,VWS V14.01,2013-08-04 14:01:00,
2013-08-04 04:06:00,72.3,66.8,29.97,NNE,20,6.0,7.0,83,0.00,,,0.00,VWS V14.01,2013-08-04 14:06:00,
2013-08-04 04:11:00,72.1,67.0,29.97,North,359,8.0,10.0,84,0.00,,,0.00,VWS V14.01,2013-08-04 14:11:00,
2013-08-04 04:16:00,72.1,67.0,29.97,NNE,29,6.0,7.0,84,0.00,,,0.00,VWS V14.01,2013-08-04 14:16:00,
2013-08-04 04:21:00,72.0,67.2,29.97,North,4,6.0,6.0,85,0.00,,,0.00,VWS V14.01,2013-08-04 14:21:00,
2013-08-04 04:26:00,71.9,67.5,29.97,NNE,22,6.0,6.0,86,0.00,,,0.00,VWS V14.01,2013-08-04 14:26:00,
2013-08-04 04:31:00,71.8,67.7,29.97,NNE,12,10.0,14.0,87,0.00,,,0.00,VWS V14.01,2013-08-04 14:31:00,
2013-08-04 04:36:00,71.9,67.8,29.97,NNE,27,9.0,10.0,87,0.00,,,0.00,VWS V14.01,2013-08-04 14:36:00,
2013-08-04 04:41:00,71.8,67.4,29.97,NNE,16,10.0,10.0,86,0.00,,,0.00,VWS V14.01,2013-08-04 14:41:00,
2013-08-04 04:46:00,71.9,67.2,29.96,North,3,14.0,15.0,85,0.00,,,0.00,VWS V14.01,2013-08-04 14:46:00,
2013-08-04 04:51:00,72.0,67.2,29.97,NNE,16,12.0,12.0,85,0.00,,,0.00,VWS V14.01,2013-08-04 14:51:00,
2013-08-04 04:57:00,72.1,67.3,29.97,NNW,341,3.0,3.0,85,0.00,,,0.00,VWS V14.01,2013-08-04 14:57:00,
2013-08-04 05:02:00,72.1,67.7,29.97,ENE,62,5.0,5.0,86,0.00,,,0.00,VWS V14.01,2013-08-04 15:02:00,
2013-08-04 05:07:00,71.9,67.5,29.97,ENE,64,7.0,7.0,86,0.00,,,0.00,VWS V14.01,2013-08-04 15:07:00,
2013-08-04 05:12:00,71.6,67.9,29.98,ENE,78,12.0,13.0,88,0.00,,,0.00,VWS V14.01,2013-08-04 15:12:00,
2013-08-04 05:17:00,71.0,67.9,29.98,NE,49,5.0,6.0,90,0.00,,,0.00,VWS V14.01,2013-08-04 15:17:00,
2013-08-04 05:22:00,70.6,67.2,29.98,NNE,33,4.0,4.0,89,0.00,,,0.00,VWS V14.01,2013-08-04 15:22:00,
2013-08-04 05:27:00,70.6,66.9,29.98,NNE,25,5.0,5.0,88,0.00,,,0.00,VWS V14.01,2013-08-04 15:27:00,
2013-08-04 05:32:00,70.8,66.7,29.98,NNE,23,8.0,8.0,87,0.00,,,0.00,VWS V14.01,2013-08-04 15:32:00,
2013-08-04 05:37:00,71.1,66.4,29.98,NE,37,3.0,3.0,85,0.00,,,0.00,VWS V14.01,2013-08-04 15:37:00,
2013-08-04 05:42:00,71.3,66.2,29.98,NNE,25,5.0,5.0,84,0.00,,,0.00,VWS V14.01,2013-08-04 15:42:00,
2013-08-04 05:47:00,71.6,66.5,29.98,ENE,59,7.0,8.0,84,0.00,,,0.00,VWS V14.01,2013-08-04 15:47:00,
2013-08-04 05:52:00,71.9,67.2,29.99,East,92,4.0,9.0,85,0.00,,,0.00,VWS V14.01,2013-08-04 15:52:00,
2013-08-04 05:57:00,71.8,67.4,29.99,NE,52,8.0,10.0,86,0.00,,,0.00,VWS V14.01,2013-08-04 15:57:00,
2013-08-04 06:02:00,71.8,67.7,29.99,NNE,28,4.0,4.0,87,0.00,,,0.00,VWS V14.01,2013-08-04 16:02:00,
2013-08-04 06:07:00,71.7,67.6,29.99,NNE,12,4.0,4.0,87,0.00,,,0.00,VWS V14.01,2013-08-04 16:07:00,
2013-08-04 06:12:00,71.7,67.6,29.99,NE,42,6.0,7.0,87,0.00,,,0.00,VWS V14.01,2013-08-04 16:12:00,
2013-08-04 06:18:00,71.8,68.1,29.99,NE,54,8.0,8.0,88,0.00,,,0.00,VWS V14.01,2013-08-04 16:18:00,
2013-08-04 06:23:00,72.1,68.3,29.99,East,98,7.0,7.0,88,0.00,,,0.00,VWS V14.01,2013-08-04 16:23:00,
2013-08-04 06:27:00,72.3,68.6,29.99,NNE,16,8.0,8.0,88,0.00,,,0.00,VWS V14.01,2013-08-04 16:27:00,
2013-08-04 06:33:00,72.6,68.2,29.99,North,352,8.0,8.0,86,0.00,,,0.00,VWS V14.01,2013-08-04 16:33:00,
2013-08-04 06:38:00,72.9,67.8,29.99,NNE,33,5.0,6.0,84,0.00,,,0.00,VWS V14.01,2013-08-04 16:38:00,
2013-08-04 06:42:00,73.5,68.0,30.00,ENE,63,6.0,7.0,83,0.00,,,0.00,VWS V14.01,2013-08-04 16:42:00,
2013-08-04 06:48:00,73.6,67.4,30.00,NE,42,4.0,4.0,81,0.00,,,0.00,VWS V14.01,2013-08-04 16:48:00,
2013-08-04 06:53:00,74.0,67.4,30.00,NE,34,8.0,9.0,80,0.00,,,0.00,VWS V14.01,2013-08-04 16:53:00,
2013-08-04 06:58:00,74.2,66.9,30.00,NE,52,6.0,7.0,78,0.00,,,0.00,VWS V14.01,2013-08-04 16:58:00,
2013-08-04 07:04:00,74.3,67.4,30.00,NE,51,3.0,3.0,79,0.00,,,0.00,VWS V14.01,2013-08-04 17:04:00,
2013-08-04 07:09:00,74.0,66.3,30.00,North,5,6.0,7.0,77,0.00,,,0.00,VWS V14.01,2013-08-04 17:09:00,
2013-08-04 07:14:00,74.0,66.3,30.00,NNE,27,7.0,9.0,77,0.00,,,0.00,VWS V14.01,2013-08-04 17:14:00,
2013-08-04 07:19:00,73.9,66.6,30.00,ENE,64,1.0,3.0,78,0.00,,,0.00,VWS V14.01,2013-08-04 17:19:00,
2013-08-04 07:23:00,73.8,66.9,30.00,North,2,8.0,8.0,79,0.00,,,0.00,VWS V14.01,2013-08-04 17:23:00,
2013-08-04 07:28:00,74.0,66.3,30.00,East,95,8.0,9.0,77,0.00,,,0.00,VWS V14.01,2013-08-04 17:28:00,
2013-08-04 07:34:00,74.2,66.2,30.00,ENE,69,10.0,10.0,76,0.00,,,0.00,VWS V14.01,2013-08-04 17:34:00,
2013-08-04 07:39:00,74.5,66.4,30.01,NNE,29,8.0,9.0,76,0.00,,,0.00,VWS V14.01,2013-08-04 17:39:00,
2013-08-04 07:44:00,74.7,66.3,30.01,ENE,59,11.0,11.0,75,0.00,,,0.00,VWS V14.01,2013-08-04 17:44:00,
2013-08-04 07:49:00,74.8,66.7,30.01,NE,45,12.0,13.0,76,0.00,,,0.00,VWS V14.01,2013-08-04 17:49:00,
2013-08-04 07:54:00,75.0,66.9,30.01,NNE,26,6.0,9.0,76,0.00,,,0.00,VWS V14.01,2013-08-04 17:54:00,
2013-08-04 07:59:00,74.8,67.1,30.01,North,3,6.0,6.0,77,0.00,,,0.00,VWS V14.01,2013-08-04 17:59:00,
2013-08-04 08:04:00,74.8,66.7,30.01,NE,36,7.0,7.0,76,0.00,,,0.00,VWS V14.01,2013-08-04 18:04:00,
2013-08-04 08:09:00,74.8,66.7,30.01,ENE,57,4.0,5.0,76,0.00,,,0.00,VWS V14.01,2013-08-04 18:09:00,
2013-08-04 08:14:00,74.9,67.2,30.01,ENE,59,6.0,6.0,77,0.00,,,0.00,VWS V14.01,2013-08-04 18:14:00,
2013-08-04 08:19:00,75.1,67.0,30.01,NNE,14,8.0,9.0,76,0.00,,,0.00,VWS V14.01,2013-08-04 18:19:00,
2013-08-04 08:24:00,75.7,67.6,30.01,ENE,59,8.0,8.0,76,0.00,,,0.00,VWS V14.01,2013-08-04 18:24:00,
2013-08-04 08:29:00,76.4,68.3,30.01,ENE,67,9.0,9.0,76,0.00,,,0.00,VWS V14.01,2013-08-04 18:29:00,
2013-08-04 08:35:00,76.1,67.6,30.01,NE,56,8.0,11.0,75,0.00,,,0.00,VWS V14.01,2013-08-04 18:35:00,
2013-08-04 08:40:00,76.2,68.5,30.01,East,87,7.0,8.0,77,0.00,,,0.00,VWS V14.01,2013-08-04 18:40:00,
2013-08-04 08:45:00,76.8,68.3,30.01,ENE,61,7.0,7.0,75,0.00,,,0.00,VWS V14.01,2013-08-04 18:45:00,
2013-08-04 08:50:00,76.4,68.3,30.01,NE,51,10.0,13.0,76,0.00,,,0.00,VWS V14.01,2013-08-04 18:50:00,
2013-08-04 08:55:00,76.8,67.9,30.01,NE,37,7.0,10.0,74,0.00,,,0.00,VWS V14.01,2013-08-04 18:55:00,
2013-08-04 09:00:00,76.9,68.4,30.01,ENE,64,10.0,11.0,75,0.00,,,0.00,VWS V14.01,2013-08-04 19:00:00,
2013-08-04 09:05:00,77.0,68.5,30.01,ESE,104,9.0,11.0,75,0.00,,,0.00,VWS V14.01,2013-08-04 19:05:00,
2013-08-04 09:10:00,76.9,68.4,30.01,ESE,106,12.0,12.0,75,0.00,,,0.00,VWS V14.01,2013-08-04 19:10:00,
2013-08-04 09:15:00,77.0,68.9,30.01,NNE,16,8.0,10.0,76,0.00,,,0.00,VWS V14.01,2013-08-04 19:15:00,
2013-08-04 09:20:00,76.8,69.1,30.01,ENE,74,12.0,12.0,77,0.00,,,0.00,VWS V14.01,2013-08-04 19:20:00,
2013-08-04 09:25:00,76.9,69.2,30.01,ENE,61,10.0,10.0,77,0.00,,,0.00,VWS V14.01,2013-08-04 19:25:00,
2013-08-04 09:30:00,76.9,69.2,30.01,ENE,62,12.0,16.0,77,0.00,,,0.00,VWS V14.01,2013-08-04 19:30:00,
2013-08-04 09:35:00,77.0,69.6,30.01,NE,45,11.0,15.0,78,0.00,,,0.00,VWS V14.01,2013-08-04 19:35:00,
2013-08-04 09:40:00,77.1,69.3,30.01,NE,40,10.0,12.0,77,0.00,,,0.00,VWS V14.01,2013-08-04 19:40:00,
2013-08-04 09:45:00,76.9,69.2,30.01,East,84,13.0,14.0,77,0.00,,,0.00,VWS V14.01,2013-08-04 19:45:00,
2013-08-04 09:50:00,76.9,69.2,30.01,ENE,75,13.0,13.0,77,0.00,,,0.00,VWS V14.01,2013-08-04 19:50:00,
2013-08-04 09:55:00,77.5,69.7,30.01,East,82,10.0,17.0,77,0.00,,,0.00,VWS V14.01,2013-08-04 19:55:00,
2013-08-04 10:00:00,77.2,70.2,30.01,ENE,68,14.0,16.0,79,0.00,,,0.00,VWS V14.01,2013-08-04 20:00:00,
2013-08-04 10:06:00,77.8,70.8,30.01,ENE,76,14.0,15.0,79,0.00,,,0.00,VWS V14.01,2013-08-04 20:06:00,
2013-08-04 10:11:00,77.9,70.1,30.01,ENE,62,10.0,19.0,77,0.00,,,0.00,VWS V14.01,2013-08-04 20:11:00,
2013-08-04 10:15:00,77.6,70.6,30.01,ENE,64,15.0,15.0,79,0.00,,,0.00,VWS V14.01,2013-08-04 20:15:00,
2013-08-04 10:20:00,77.3,70.3,30.01,ESE,103,11.0,14.0,79,0.00,,,0.00,VWS V14.01,2013-08-04 20:20:00,
2013-08-04 10:26:00,77.2,70.2,30.01,East,97,16.0,16.0,79,0.00,,,0.00,VWS V14.01,2013-08-04 20:26:00,
2013-08-04 10:31:00,77.5,70.5,30.01,East,99,10.0,12.0,79,0.00,,,0.00,VWS V14.01,2013-08-04 20:31:00,
2013-08-04 10:36:00,78.5,70.7,30.01,East,97,12.0,19.0,77,0.00,,,0.00,VWS V14.01,2013-08-04 20:36:00,
2013-08-04 10:41:00,78.4,70.2,30.01,NE,50,18.0,19.0,76,0.00,,,0.00,VWS V14.01,2013-08-04 20:41:00,
2013-08-04 10:46:00,77.9,69.7,30.00,East,97,10.0,14.0,76,0.00,,,0.00,VWS V14.01,2013-08-04 20:46:00,
2013-08-04 10:51:00,77.7,68.8,30.00,NE,49,13.0,13.0,74,0.00,,,0.00,VWS V14.01,2013-08-04 20:51:00,
2013-08-04 10:56:00,77.7,69.2,30.00,ENE,58,15.0,17.0,75,0.00,,,0.00,VWS V14.01,2013-08-04 20:56:00,
2013-08-04 11:01:00,77.8,70.4,30.00,NE,47,10.0,12.0,78,0.00,,,0.00,VWS V14.01,2013-08-04 21:01:00,
2013-08-04 11:07:00,77.8,70.4,30.00,ENE,68,15.0,15.0,78,0.00,,,0.00,VWS V14.01,2013-08-04 21:07:00,
2013-08-04 11:12:00,77.5,70.5,30.00,East,80,12.0,12.0,79,0.00,,,0.00,VWS V14.01,2013-08-04 21:12:00,
2013-08-04 11:17:00,76.7,70.8,30.00,ENE,67,18.0,18.0,82,0.00,,,0.00,VWS V14.01,2013-08-04 21:17:00,
2013-08-04 11:22:00,75.9,70.0,30.00,ESE,102,20.0,20.0,82,0.00,,,0.00,VWS V14.01,2013-08-04 21:22:00,
2013-08-04 11:27:00,76.0,70.1,30.00,East,100,15.0,18.0,82,0.00,,,0.00,VWS V14.01,2013-08-04 21:27:00,
2013-08-04 11:32:00,76.1,70.2,30.00,ENE,61,11.0,15.0,82,0.00,,,0.00,VWS V14.01,2013-08-04 21:32:00,
2013-08-04 11:37:00,75.7,69.8,30.00,East,86,17.0,17.0,82,0.00,,,0.00,VWS V14.01,2013-08-04 21:37:00,
2013-08-04 11:42:00,76.5,70.6,30.00,East,83,12.0,15.0,82,0.00,,,0.00,VWS V14.01,2013-08-04 21:42:00,
2013-08-04 11:47:00,76.0,69.8,30.00,ENE,63,16.0,16.0,81,0.00,,,0.00,VWS V14.01,2013-08-04 21:47:00,
2013-08-04 11:49:00,75.9,69.7,30.00,East,80,12.0,12.0,81,0.00,,,0.00,VWS V14.01,2013-08-04 21:49:00,
2013-08-04 11:54:00,76.1,69.8,30.00,NNE,12,11.0,19.0,81,0.00,,,0.00,VWS V14.01,2013-08-04 21:54:00,
2013-08-04 11:59:00,76.2,69.9,30.00,NE,42,13.0,15.0,81,0.00,,,0.00,VWS V14.01,2013-08-04 21:59:00,
2013-08-04 12:04:00,76.4,70.1,29.99,ENE,76,11.0,12.0,81,0.00,,,0.00,VWS V14.01,2013-08-04 22:04:00,
2013-08-04 12:09:00,76.1,69.5,29.99,NE,55,10.0,12.0,80,0.00,,,0.00,VWS V14.01,2013-08-04 22:09:00,
2013-08-04 12:14:00,76.3,69.7,29.99,ENE,73,16.0,16.0,80,0.00,,,0.00,VWS V14.01,2013-08-04 22:14:00,
2013-08-04 12:19:00,76.3,70.1,29.99,NE,47,11.0,17.0,81,0.00,,,0.00,VWS V14.01,2013-08-04 22:19:00,
2013-08-04 12:24:00,76.5,70.2,29.99,East,98,15.0,15.0,81,0.00,,,0.00,VWS V14.01,2013-08-04 22:24:00,
2013-08-04 12:29:00,76.4,70.5,29.98,East,83,21.0,21.0,82,0.00,,,0.00,VWS V14.01,2013-08-04 22:29:00,
2013-08-04 12:34:00,75.8,70.3,29.98,ENE,74,14.0,16.0,83,0.00,,,0.00,VWS V14.01,2013-08-04 22:34:00,
2013-08-04 12:40:00,75.8,70.6,29.98,East,101,17.0,17.0,84,0.00,,,0.00,VWS V14.01,2013-08-04 22:40:00,
2013-08-04 12:45:00,76.1,70.6,29.98,NE,50,15.0,15.0,83,0.00,,,0.00,VWS V14.01,2013-08-04 22:45:00,
2013-08-04 12:49:00,76.0,70.1,29.98,ENE,75,14.0,18.0,82,0.00,,,0.00,VWS V14.01,2013-08-04 22:49:00,
2013-08-04 12:55:00,76.2,69.9,29.98,ENE,59,10.0,13.0,81,0.00,,,0.00,VWS V14.01,2013-08-04 22:55:00,
2013-08-04 13:00:00,75.8,70.3,29.98,ENE,73,16.0,16.0,83,0.00,,,0.00,VWS V14.01,2013-08-04 23:00:00,
2013-08-04 13:05:00,75.7,70.2,29.98,ENE,58,8.0,9.0,83,0.00,,,0.00,VWS V14.01,2013-08-04 23:05:00,
2013-08-04 13:10:00,75.7,70.2,29.97,ENE,59,10.0,12.0,83,0.00,,,0.00,VWS V14.01,2013-08-04 23:10:00,
2013-08-04 13:15:00,75.8,69.9,29.97,NE,49,15.0,15.0,82,0.00,,,0.00,VWS V14.01,2013-08-04 23:15:00,
2013-08-04 13:20:00,75.9,70.0,29.97,ENE,64,8.0,14.0,82,0.00,,,0.00,VWS V14.01,2013-08-04 23:20:00,
2013-08-04 13:25:00,75.8,69.9,29.97,ENE,68,9.0,11.0,82,0.00,,,0.00,VWS V14.01,2013-08-04 23:25:00,
2013-08-04 13:30:00,75.6,69.7,29.97,NNE,18,18.0,18.0,82,0.00,,,0.00,VWS V14.01,2013-08-04 23:30:00,
2013-08-04 13:35:00,75.3,70.1,29.97,NE,38,11.0,14.0,84,0.00,,,0.00,VWS V14.01,2013-08-04 23:35:00,
2013-08-04 13:40:00,75.4,70.2,29.97,NNE,21,13.0,13.0,84,0.00,,,0.00,VWS V14.01,2013-08-04 23:40:00,
2013-08-04 13:45:00,75.3,69.8,29.97,East,80,9.0,9.0,83,0.00,,,0.00,VWS V14.01,2013-08-04 23:45:00,
2013-08-04 13:50:00,75.3,69.8,29.96,NNE,24,12.0,12.0,83,0.00,,,0.00,VWS V14.01,2013-08-04 23:50:00,
2013-08-04 13:55:00,75.2,69.7,29.96,ENE,78,9.0,9.0,83,0.00,,,0.00,VWS V14.01,2013-08-04 23:55:00,
2013-08-04 14:00:00,75.2,69.3,29.96,East,98,7.0,9.0,82,0.00,,,0.00,VWS V14.01,2013-08-05 00:00:00,
2013-08-04 14:06:00,75.3,69.4,29.97,ENE,62,7.0,9.0,82,0.00,,,0.00,VWS V14.01,2013-08-05 00:06:00,
2013-08-04 14:11:00,75.6,69.4,29.97,NE,52,14.0,14.0,81,0.00,,,0.00,VWS V14.01,2013-08-05 00:11:00,
2013-08-04 14:16:00,75.5,69.6,29.96,East,85,13.0,17.0,82,0.00,,,0.00,VWS V14.01,2013-08-05 00:16:00,
2013-08-04 14:21:00,75.4,69.9,29.96,NNE,26,11.0,21.0,83,0.00,,,0.00,VWS V14.01,2013-08-05 00:21:00,
2013-08-04 14:26:00,75.2,69.7,29.96,NE,50,8.0,8.0,83,0.00,,,0.00,VWS V14.01,2013-08-05 00:26:00,
2013-08-04 14:31:00,75.2,69.7,29.96,NNE,27,10.0,10.0,83,0.00,,,0.00,VWS V14.01,2013-08-05 00:31:00,
2013-08-04 14:36:00,75.1,69.2,29.96,NNE,31,12.0,12.0,82,0.00,,,0.00,VWS V14.01,2013-08-05 00:36:00,
2013-08-04 14:41:00,75.1,69.6,29.96,WNW,284,15.0,15.0,83,0.00,,,0.00,VWS V14.01,2013-08-05 00:41:00,
2013-08-04 14:46:00,75.3,69.8,29.96,NE,54,12.0,12.0,83,0.00,,,0.00,VWS V14.01,2013-08-05 00:46:00,
2013-08-04 14:51:00,75.1,69.6,29.96,NE,47,11.0,14.0,83,0.00,,,0.00,VWS V14.01,2013-08-05 00:51:00,
2013-08-04 14:56:00,75.0,69.8,29.96,NNE,31,13.0,13.0,84,0.00,,,0.00,VWS V14.01,2013-08-05 00:56:00,
2013-08-04 15:02:00,74.9,69.4,29.96,NE,50,13.0,16.0,83,0.00,,,0.00,VWS V14.01,2013-08-05 01:02:00,
2013-08-04 15:07:00,74.9,69.0,29.96,NE,37,13.0,15.0,82,0.00,,,0.00,VWS V14.01,2013-08-05 01:07:00,
2013-08-04 15:11:00,75.0,69.8,29.96,East,92,12.0,12.0,84,0.00,,,0.00,VWS V14.01,2013-08-05 01:11:00,
2013-08-04 15:17:00,74.8,69.7,29.96,NE,41,10.0,15.0,84,0.00,,,0.00,VWS V14.01,2013-08-05 01:17:00,
2013-08-04 15:22:00,74.8,69.3,29.96,NE,43,8.0,12.0,83,0.00,,,0.00,VWS V14.01,2013-08-05 01:22:00,
2013-08-04 15:27:00,74.8,69.3,29.95,NNE,33,16.0,16.0,83,0.00,,,0.00,VWS V14.01,2013-08-05 01:27:00,
2013-08-04 15:32:00,74.9,69.7,29.95,NE,38,9.0,9.0,84,0.00,,,0.00,VWS V14.01,2013-08-05 01:32:00,
2013-08-04 15:37:00,75.1,69.2,29.96,ENE,66,11.0,14.0,82,0.00,,,0.00,VWS V14.01,2013-08-05 01:37:00,
2013-08-04 15:42:00,75.1,69.2,29.96,ENE,65,15.0,15.0,82,0.00,,,0.00,VWS V14.01,2013-08-05 01:42:00,
2013-08-04 15:47:00,75.1,69.2,29.96,NE,52,10.0,10.0,82,0.00,,,0.00,VWS V14.01,2013-08-05 01:47:00,
2013-08-04 15:52:00,75.1,68.9,29.95,ENE,60,8.0,9.0,81,0.00,,,0.00,VWS V14.01,2013-08-05 01:52:00,
2013-08-04 15:57:00,75.1,68.9,29.95,NE,54,8.0,11.0,81,0.00,,,0.00,VWS V14.01,2013-08-05 01:57:00,
2013-08-04 16:02:00,75.5,69.3,29.95,NE,45,11.0,12.0,81,0.00,,,0.00,VWS V14.01,2013-08-05 02:02:00,
2013-08-04 16:07:00,75.5,69.3,29.95,NE,54,15.0,15.0,81,0.00,,,0.00,VWS V14.01,2013-08-05 02:07:00,
2013-08-04 16:12:00,75.2,69.0,29.95,NNE,30,14.0,14.0,81,0.00,,,0.00,VWS V14.01,2013-08-05 02:12:00,
2013-08-04 16:17:00,75.3,68.7,29.95,NE,56,13.0,13.0,80,0.00,,,0.00,VWS V14.01,2013-08-05 02:17:00,
2013-08-04 16:22:00,75.0,68.4,29.95,NE,35,7.0,7.0,80,0.00,,,0.00,VWS V14.01,2013-08-05 02:22:00,
2013-08-04 16:27:00,74.9,69.0,29.95,ENE,58,9.0,11.0,82,0.00,,,0.00,VWS V14.01,2013-08-05 02:27:00,
2013-08-04 16:32:00,74.7,68.8,29.95,NE,48,13.0,15.0,82,0.00,,,0.00,VWS V14.01,2013-08-05 02:32:00,
2013-08-04 16:38:00,74.5,69.0,29.95,NNE,28,10.0,14.0,83,0.00,,,0.00,VWS V14.01,2013-08-05 02:38:00,
2013-08-04 16:43:00,74.5,68.7,29.95,ENE,57,8.0,8.0,82,0.00,,,0.00,VWS V14.01,2013-08-05 02:43:00,
2013-08-04 16:48:00,74.5,68.7,29.96,NNE,28,14.0,14.0,82,0.00,,,0.00,VWS V14.01,2013-08-05 02:48:00,
2013-08-04 16:53:00,74.6,68.8,29.95,NE,52,9.0,10.0,82,0.00,,,0.00,VWS V14.01,2013-08-05 02:53:00,
2013-08-04 16:58:00,74.8,68.9,29.95,NE,48,12.0,12.0,82,0.00,,,0.00,VWS V14.01,2013-08-05 02:58:00,
2013-08-04 17:03:00,75.0,69.1,29.96,NE,38,13.0,13.0,82,0.00,,,0.00,VWS V14.01,2013-08-05 03:03:00,
2013-08-04 17:08:00,74.8,69.3,29.95,NE,45,12.0,12.0,83,0.00,,,0.00,VWS V14.01,2013-08-05 03:08:00,
2013-08-04 17:13:00,74.7,68.8,29.96,NE,53,11.0,13.0,82,0.00,,,0.00,VWS V14.01,2013-08-05 03:13:00,
2013-08-04 17:18:00,74.7,69.2,29.96,NE,43,11.0,11.0,83,0.00,,,0.00,VWS V14.01,2013-08-05 03:18:00,
2013-08-04 17:23:00,74.4,68.6,29.96,NNE,26,7.0,14.0,82,0.00,,,0.00,VWS V14.01,2013-08-05 03:23:00,
2013-08-04 17:28:00,74.2,68.7,29.96,NE,52,6.0,12.0,83,0.00,,,0.00,VWS V14.01,2013-08-05 03:28:00,
2013-08-04 17:33:00,74.2,68.7,29.96,NNE,23,10.0,10.0,83,0.00,,,0.00,VWS V14.01,2013-08-05 03:33:00,
2013-08-04 17:38:00,74.2,69.1,29.96,NE,35,12.0,12.0,84,0.00,,,0.00,VWS V14.01,2013-08-05 03:38:00,
2013-08-04 17:43:00,74.1,69.3,29.96,NE,44,9.0,10.0,85,0.00,,,0.00,VWS V14.01,2013-08-05 03:43:00,
2013-08-04 17:49:00,74.1,69.3,29.97,NNE,19,14.0,14.0,85,0.00,,,0.00,VWS V14.01,2013-08-05 03:49:00,
2013-08-04 17:54:00,74.0,69.2,29.97,ENE,57,10.0,10.0,85,0.00,,,0.00,VWS V14.01,2013-08-05 03:54:00,
2013-08-04 17:58:00,73.9,68.8,29.97,ENE,66,11.0,11.0,84,0.00,,,0.00,VWS V14.01,2013-08-05 03:58:00,
2013-08-04 18:01:00,73.9,68.8,29.97,NE,35,12.0,12.0,84,0.00,,,0.00,VWS V14.01,2013-08-05 04:01:00,
2013-08-04 18:02:00,73.9,68.8,29.97,ENE,74,13.0,13.0,84,0.00,,,0.00,VWS V14.01,2013-08-05 04:02:00,
2013-08-04 18:07:00,73.9,68.8,29.97,NE,50,9.0,12.0,84,0.00,,,0.00,VWS V14.01,2013-08-05 04:07:00,
2013-08-04 18:12:00,74.0,68.5,29.97,NE,38,6.0,11.0,83,0.00,,,0.00,VWS V14.01,2013-08-05 04:12:00,
2013-08-04 18:17:00,74.0,68.9,29.97,NNE,26,15.0,15.0,84,0.00,,,0.00,VWS V14.01,2013-08-05 04:17:00,
2013-08-04 18:23:00,74.0,68.9,29.97,NE,54,11.0,11.0,84,0.00,,,0.00,VWS V14.01,2013-08-05 04:23:00,
2013-08-04 18:27:00,74.0,68.9,29.97,NNE,26,10.0,10.0,84,0.00,,,0.00,VWS V14.01,2013-08-05 04:27:00,
2013-08-04 18:33:00,74.0,68.5,29.97,NE,45,10.0,11.0,83,0.00,,,0.00,VWS V14.01,2013-08-05 04:33:00,
2013-08-04 18:38:00,74.0,68.9,29.97,NNE,25,8.0,10.0,84,0.00,,,0.00,VWS V14.01,2013-08-05 04:38:00,
2013-08-04 18:43:00,74.0,68.9,29.97,NE,50,11.0,11.0,84,0.00,,,0.00,VWS V14.01,2013-08-05 04:43:00,
2013-08-04 18:48:00,74.0,68.9,29.98,NE,52,6.0,6.0,84,0.00,,,0.00,VWS V14.01,2013-08-05 04:48:00,
2013-08-04 18:53:00,74.0,68.9,29.98,ENE,64,17.0,17.0,84,0.00,,,0.00,VWS V14.01,2013-08-05 04:53:00,
2013-08-04 18:58:00,74.0,68.9,29.98,NNE,28,6.0,6.0,84,0.00,,,0.00,VWS V14.01,2013-08-05 04:58:00,
2013-08-04 19:03:00,74.0,68.9,29.98,ENE,71,7.0,7.0,84,0.00,,,0.00,VWS V14.01,2013-08-05 05:03:00,
2013-08-04 19:08:00,73.9,69.1,29.98,NNE,19,9.0,9.0,85,0.00,,,0.00,VWS V14.01,2013-08-05 05:08:00,
2013-08-04 19:13:00,73.9,69.4,29.98,NNE,30,9.0,10.0,86,0.00,,,0.00,VWS V14.01,2013-08-05 05:13:00,
2013-08-04 19:18:00,73.8,69.3,29.98,NNE,26,7.0,11.0,86,0.00,,,0.00,VWS V14.01,2013-08-05 05:18:00,
2013-08-04 19:23:00,73.8,69.3,29.98,NE,43,9.0,9.0,86,0.00,,,0.00,VWS V14.01,2013-08-05 05:23:00,
2013-08-04 19:28:00,73.7,69.3,29.98,North,10,7.0,7.0,86,0.00,,,0.00,VWS V14.01,2013-08-05 05:28:00,
2013-08-04 19:33:00,73.7,69.3,29.99,NNE,27,6.0,13.0,86,0.00,,,0.00,VWS V14.01,2013-08-05 05:33:00,
2013-08-04 19:39:00,73.7,69.3,29.99,NE,54,14.0,16.0,86,0.00,,,0.00,VWS V14.01,2013-08-05 05:39:00,
2013-08-04 19:44:00,73.7,69.3,29.99,NNE,31,9.0,12.0,86,0.00,,,0.00,VWS V14.01,2013-08-05 05:44:00,
2013-08-04 19:48:00,73.6,69.2,29.99,NE,40,11.0,13.0,86,0.00,,,0.00,VWS V14.01,2013-08-05 05:48:00,
2013-08-04 19:54:00,73.6,69.2,29.99,East,86,21.0,21.0,86,0.00,,,0.00,VWS V14.01,2013-08-05 05:54:00,
2013-08-04 19:59:00,73.7,68.9,29.99,NE,54,8.0,8.0,85,0.00,,,0.00,VWS V14.01,2013-08-05 05:59:00,
2013-08-04 20:04:00,73.7,68.9,29.99,NE,51,8.0,10.0,85,0.00,,,0.00,VWS V14.01,2013-08-05 06:04:00,
2013-08-04 20:09:00,73.7,68.9,30.00,NE,35,8.0,13.0,85,0.00,,,0.00,VWS V14.01,2013-08-05 06:09:00,
2013-08-04 20:14:00,73.7,68.9,29.99,North,357,18.0,20.0,85,0.00,,,0.00,VWS V14.01,2013-08-05 06:14:00,
2013-08-04 20:19:00,73.8,68.7,30.00,NNE,21,12.0,15.0,84,0.00,,,0.00,VWS V14.01,2013-08-05 06:19:00,
2013-08-04 20:24:00,73.8,68.7,30.00,NE,38,11.0,11.0,84,0.00,,,0.00,VWS V14.01,2013-08-05 06:24:00,
2013-08-04 20:29:00,73.7,68.9,30.00,NE,37,13.0,13.0,85,0.00,,,0.00,VWS V14.01,2013-08-05 06:29:00,
2013-08-04 20:34:00,73.5,69.1,30.00,NNE,25,10.0,13.0,86,0.00,,,0.00,VWS V14.01,2013-08-05 06:34:00,
2013-08-04 20:39:00,73.4,69.0,30.01,NNE,24,5.0,6.0,86,0.00,,,0.00,VWS V14.01,2013-08-05 06:39:00,
2013-08-04 20:44:00,73.3,68.5,30.00,NNE,16,5.0,7.0,85,0.00,,,0.00,VWS V14.01,2013-08-05 06:44:00,
2013-08-04 20:50:00,73.3,68.2,30.01,NNE,32,5.0,8.0,84,0.00,,,0.00,VWS V14.01,2013-08-05 06:50:00,
2013-08-04 20:54:00,73.4,67.9,30.01,NE,34,7.0,8.0,83,0.00,,,0.00,VWS V14.01,2013-08-05 06:54:00,
2013-08-04 21:00:00,73.4,68.3,30.01,NE,46,14.0,14.0,84,0.00,,,0.00,VWS V14.01,2013-08-05 07:00:00,
2013-08-04 21:05:00,73.2,68.4,30.01,North,10,14.0,15.0,85,0.00,,,0.00,VWS V14.01,2013-08-05 07:05:00,
2013-08-04 21:10:00,73.0,68.2,30.02,NNE,17,10.0,12.0,85,0.00,,,0.00,VWS V14.01,2013-08-05 07:10:00,
2013-08-04 21:15:00,72.9,68.5,30.02,ENE,69,10.0,10.0,86,0.00,,,0.00,VWS V14.01,2013-08-05 07:15:00,
2013-08-04 21:20:00,72.7,68.3,30.02,NE,56,9.0,10.0,86,0.00,,,0.00,VWS V14.01,2013-08-05 07:20:00,
2013-08-04 21:25:00,72.5,68.4,30.02,NNE,19,10.0,11.0,87,0.00,,,0.00,VWS V14.01,2013-08-05 07:25:00,
2013-08-04 21:30:00,72.4,68.3,30.03,NE,40,7.0,7.0,87,0.00,,,0.00,VWS V14.01,2013-08-05 07:30:00,
2013-08-04 21:35:00,72.4,68.3,30.02,NE,36,10.0,10.0,87,0.00,,,0.00,VWS V14.01,2013-08-05 07:35:00,
2013-08-04 21:40:00,72.3,67.9,30.02,NNE,13,3.0,4.0,86,0.00,,,0.00,VWS V14.01,2013-08-05 07:40:00,
2013-08-04 21:45:00,72.4,67.3,30.02,NNE,25,12.0,14.0,84,0.00,,,0.00,VWS V14.01,2013-08-05 07:45:00,
2013-08-04 21:50:00,72.7,67.2,30.02,North,352,8.0,8.0,83,0.00,,,0.00,VWS V14.01,2013-08-05 07:50:00,
2013-08-04 21:55:00,72.8,66.6,30.02,North,8,11.0,11.0,81,0.00,,,0.00,VWS V14.01,2013-08-05 07:55:00,
2013-08-04 22:00:00,73.2,66.3,30.03,NNE,33,9.0,9.0,79,0.00,,,0.00,VWS V14.01,2013-08-05 08:00:00,
2013-08-04 22:05:00,73.5,66.2,30.03,NE,35,4.0,6.0,78,0.00,,,0.00,VWS V14.01,2013-08-05 08:05:00,
2013-08-04 22:10:00,73.6,66.3,30.03,WNW,296,19.0,19.0,78,0.00,,,0.00,VWS V14.01,2013-08-05 08:10:00,
2013-08-04 22:15:00,73.7,66.8,30.03,NW,315,16.0,16.0,79,0.00,,,0.00,VWS V14.01,2013-08-05 08:15:00,
2013-08-04 22:20:00,73.6,67.1,30.02,NW,323,18.0,18.0,80,0.00,,,0.00,VWS V14.01,2013-08-05 08:20:00,
2013-08-04 22:25:00,73.6,67.4,30.03,NNE,28,13.0,15.0,81,0.00,,,0.00,VWS V14.01,2013-08-05 08:25:00,
2013-08-04 22:31:00,73.7,67.2,30.03,NNE,15,11.0,11.0,80,0.00,,,0.00,VWS V14.01,2013-08-05 08:31:00,
2013-08-04 22:36:00,73.9,67.7,30.02,North,357,13.0,19.0,81,0.00,,,0.00,VWS V14.01,2013-08-05 08:36:00,
2013-08-04 22:42:00,73.8,68.0,30.03,NNE,28,13.0,13.0,82,0.00,,,0.00,VWS V14.01,2013-08-05 08:42:00,
2013-08-04 22:48:00,73.6,68.1,30.03,ENE,59,7.0,11.0,83,0.00,,,0.00,VWS V14.01,2013-08-05 08:48:00,
2013-08-04 22:53:00,73.5,68.0,30.03,NNE,24,7.0,7.0,83,0.00,,,0.00,VWS V14.01,2013-08-05 08:53:00,
2013-08-04 22:58:00,73.1,68.0,30.03,NNE,14,10.0,12.0,84,0.00,,,0.00,VWS V14.01,2013-08-05 08:58:00,
2013-08-04 23:03:00,72.6,68.2,30.03,North,7,12.0,12.0,86,0.00,,,0.00,VWS V14.01,2013-08-05 09:03:00,
2013-08-04 23:08:00,72.8,67.7,30.03,NE,48,8.0,9.0,84,0.00,,,0.00,VWS V14.01,2013-08-05 09:08:00,
2013-08-04 23:13:00,73.1,67.3,30.03,NNE,27,7.0,8.0,82,0.00,,,0.00,VWS V14.01,2013-08-05 09:13:00,
2013-08-04 23:18:00,73.5,66.6,30.03,NE,51,5.0,7.0,79,0.00,,,0.00,VWS V14.01,2013-08-05 09:18:00,
2013-08-04 23:23:00,73.7,67.2,30.02,ENE,63,4.0,5.0,80,0.00,,,0.00,VWS V14.01,2013-08-05 09:23:00,
2013-08-04 23:28:00,73.6,67.4,30.02,ESE,108,9.0,11.0,81,0.00,,,0.00,VWS V14.01,2013-08-05 09:28:00,
2013-08-04 23:33:00,73.6,67.8,30.02,NNE,15,9.0,12.0,82,0.00,,,0.00,VWS V14.01,2013-08-05 09:33:00,
2013-08-04 23:39:00,73.7,67.9,30.02,North,1,13.0,15.0,82,0.00,,,0.00,VWS V14.01,2013-08-05 09:39:00,
2013-08-04 23:44:00,73.6,67.8,30.02,North,6,13.0,16.0,82,0.00,,,0.00,VWS V14.01,2013-08-05 09:44:00,
2013-08-04 23:49:00,73.5,67.7,30.02,NNE,14,9.0,9.0,82,0.00,,,0.00,VWS V14.01,2013-08-05 09:49:00,
2013-08-04 23:54:00,73.6,67.8,30.02,NNE,26,8.0,8.0,82,0.00,,,0.00,VWS V14.01,2013-08-05 09:54:00,
2013-08-04 23:59:00,73.5,67.7,30.01,NNE,19,9.0,12.0,82,0.00,,,0.00,VWS V14.01,2013-08-05 09:59:00,